[[{"header":{"parameterUnit":"m.s-1","parameterCategory":1,"la1":30.2991,"la2":30.254,"lo1":-89.0895,"lo2":-89.0444,"dx":0.0017,"dy":0.0017,"nx":28,"ny":28,"refTime":"2022-12-14T15:00:00:Z","depth":0,"parameterNumber":2,"parameterNumberName":"U-component_of_WINDS"},"data":[0,0,0,0,0,0,0,0,0,0,0,0,0,0,0,0,0,0,0,0,0,0,0,0,0,0,0,0,0,0,0,0,0,0,0,0,0,0,0,0,0,0,0,0,0,0,0,0,0,0,0,0,0,0,0,0,0,0,-0.182,-0.1821,0,-0.1902,-0.1903,-0.1903,-0.1964,-0.1964,-0.1965,-0.1965,-0.2045,-0.2047,-0.2048,0,0,0,0,0,0,0,0,0,0,0,0,0,-0.1714,-0.1716,-0.182,-0.1821,-0.1822,-0.1901,-0.1903,-0.1904,-0.1963,-0.1964,-0.1965,-0.1965,-0.2045,-0.2047,-0.2049,0,0,0,0,0,0,0,0,0,0,0,0,0,-0.1774,-0.1716,-0.182,-0.1862,-0.1866,-0.1901,-0.1903,-0.1904,-0.1963,-0.1964,-0.1965,-0.1966,-0.2044,-0.2046,-0.2049,-0.2048,0,0,-0.2056,-0.2057,0,0,0,0,0,0,0,0,-0.1771,-0.1778,-0.1855,-0.1859,-0.1864,-0.1923,-0.1895,-0.1952,-0.1963,-0.1926,-0.1965,-0.1966,-0.2004,-0.201,-0.2023,-0.2052,-0.2055,-0.2056,-0.2058,-0.2059,-0.206,0,0,0,0,0,0,0,-0.1767,-0.1775,-0.1852,-0.1856,-0.1862,-0.1876,-0.1885,-0.1906,-0.1959,-0.193,-0.1934,-0.1943,-0.2007,-0.202,-0.2025,-0.2056,-0.2056,-0.2059,-0.206,-0.2061,-0.2087,-0.2087,0,0,0,0,0,0,-0.1756,-0.1771,-0.185,-0.1855,-0.1819,-0.1877,-0.1887,-0.1903,-0.1959,-0.1969,-0.1942,-0.1946,-0.2016,-0.2022,-0.2028,-0.2031,-0.2059,-0.2061,-0.2063,-0.2088,-0.2087,-0.2086,0,0,0,0,0,0,-0.1754,-0.1763,-0.1847,-0.1814,-0.1826,-0.1878,-0.1895,-0.1905,-0.1919,-0.1969,-0.1979,-0.1947,-0.2017,-0.2025,-0.2043,-0.2034,-0.2062,-0.2065,-0.2089,-0.2088,-0.2087,-0.2035,0,0,0,0,0,0,-0.175,-0.1761,-0.1762,-0.1814,-0.1828,-0.186,-0.1895,-0.1906,-0.1923,-0.1928,-0.1976,-0.1985,-0.2018,-0.2039,-0.2045,-0.2038,-0.2067,-0.209,-0.2088,-0.2087,-0.2038,-0.2032,-0.2028,0,0,0,0,0,-0.1746,-0.1744,-0.1762,-0.1771,-0.183,-0.186,-0.1867,-0.1907,-0.1922,-0.1923,-0.1955,-0.1983,-0.2034,-0.204,-0.2048,-0.2041,-0.2091,-0.2089,-0.2087,-0.204,-0.2033,-0.2028,0,0,0,0,0,0,-0.1689,-0.1752,-0.1772,-0.1787,-0.1817,-0.187,-0.1872,-0.1899,-0.1925,-0.1928,-0.1975,-0.1985,-0.1998,-0.2022,-0.2027,-0.2043,-0.2066,-0.2066,-0.2027,-0.2021,-0.2016,-0.201,-0.2069,0,0,0,0,0,-0.1678,-0.1698,-0.1751,-0.1759,-0.1773,-0.182,-0.1834,-0.1862,-0.1896,-0.1909,-0.1942,-0.1973,-0.1996,-0.201,-0.2034,-0.2041,-0.2052,-0.2041,-0.2036,-0.2031,-0.203,-0.2035,-0.2031,-0.2081,-0.2081,-0.2081,0,0,-0.1656,-0.1693,-0.1702,-0.1748,-0.1776,-0.1794,-0.183,-0.1849,-0.1863,-0.1911,-0.193,-0.1956,-0.1993,-0.2005,-0.2013,-0.2025,-0.2019,-0.2029,-0.2025,-0.2027,-0.2033,-0.2028,-0.2024,-0.2079,-0.208,-0.208,0,0,-0.1625,-0.1655,-0.1664,-0.1691,-0.1732,-0.1763,-0.1765,-0.1813,-0.1832,-0.1852,-0.1889,-0.1906,-0.1944,-0.1969,-0.1987,-0.1965,-0.1991,-0.1971,-0.1944,-0.1949,-0.1945,-0.1941,-0.1933,-0.1929,-0.197,-0.197,-0.197,0,-0.1592,-0.1622,-0.1665,-0.1682,-0.17,-0.1746,-0.1755,-0.1779,-0.1825,-0.1836,-0.185,-0.1899,-0.1928,-0.1946,-0.1941,-0.1954,-0.1957,-0.1966,-0.1942,-0.1939,-0.1937,-0.1929,-0.1926,-0.1967,-0.1967,-0.1968,-0.1968,0,-0.1579,-0.1599,-0.1602,-0.1646,-0.1666,-0.1678,-0.1722,-0.1736,-0.1762,-0.1791,-0.181,-0.1846,-0.1877,-0.1884,-0.1909,-0.1906,-0.1912,-0.1933,-0.1957,-0.1929,-0.1922,-0.192,-0.1963,-0.1964,-0.1965,-0.1966,0,0,-0.1514,-0.1582,-0.1582,-0.1603,-0.1651,-0.1667,-0.1682,-0.1714,-0.1724,-0.1754,-0.1767,-0.1798,-0.1818,-0.1838,-0.1866,-0.187,-0.185,-0.1891,-0.1893,-0.1882,-0.1848,-0.1831,-0.1827,-0.1867,-0.1867,-0.1867,-0.1844,0,-0.149,-0.1519,-0.1558,-0.1574,-0.1593,-0.1636,-0.1648,-0.1678,-0.1706,-0.1725,-0.1755,-0.1777,-0.1801,-0.1814,-0.1819,-0.1851,-0.1843,-0.1853,-0.1878,-0.1879,-0.1868,-0.1824,-0.1807,-0.1784,-0.1842,-0.1842,-0.1842,0,-0.1466,-0.1495,-0.1512,-0.1559,-0.1568,-0.1579,-0.1611,-0.1629,-0.1664,-0.1684,-0.1706,-0.1736,-0.1752,-0.1774,-0.1796,-0.1802,-0.1815,-0.1831,-0.1831,-0.1835,-0.1858,-0.1826,-0.1778,-0.1774,-0.1838,-0.1838,-0.1839,0,-0.1417,-0.1459,-0.1476,-0.1492,-0.1546,-0.1553,-0.1575,-0.1611,-0.1628,-0.1656,-0.1667,-0.1695,-0.1711,-0.1732,-0.1769,-0.1781,-0.1787,-0.1812,-0.1803,-0.1802,-0.1802,-0.1801,-0.1755,-0.181,-0.181,-0.181,-0.181,0,-0.1386,-0.1395,-0.1454,-0.1464,-0.1475,-0.1519,-0.1528,-0.1555,-0.1586,-0.1601,-0.164,-0.1653,-0.1701,-0.172,-0.1748,-0.1762,-0.1769,-0.1784,-0.1792,-0.1781,-0.1779,-0.179,-0.1792,-0.1809,-0.181,-0.181,-0.181,0,-0.1332,-0.1373,-0.1393,-0.1443,-0.1456,-0.1461,-0.1504,-0.1515,-0.1544,-0.1562,-0.1569,-0.1615,-0.1639,-0.1678,-0.1713,-0.1732,-0.174,-0.1753,-0.1728,-0.1733,-0.1722,-0.1722,-0.168,-0.1677,-0.1734,-0.1734,-0.1733,0,-0.131,-0.1318,-0.1369,-0.1382,-0.1404,-0.1425,-0.1442,-0.1485,-0.1501,-0.1542,-0.1547,-0.1574,-0.1597,-0.1633,-0.1668,-0.1695,-0.1709,-0.1692,-0.1713,-0.1701,-0.1708,-0.1707,-0.1708,-0.1687,-0.1686,-0.1686,-0.1685,0,-0.1266,-0.1285,-0.1309,-0.134,-0.1359,-0.1385,-0.1413,-0.1421,-0.147,-0.1486,-0.1511,-0.153,-0.1565,-0.1591,-0.1623,-0.1645,-0.1673,-0.1678,-0.1678,-0.1666,-0.1652,-0.1659,-0.1715,-0.1679,-0.168,-0.168,-0.168,-0.1681,-0.1227,-0.1236,-0.1274,-0.1298,-0.1324,-0.1349,-0.1361,-0.1392,-0.1414,-0.1447,-0.1471,-0.1494,-0.1528,-0.1574,-0.1595,-0.1613,-0.1625,-0.1624,-0.1624,-0.1623,-0.1618,-0.1649,-0.1618,-0.1619,-0.1619,-0.1619,-0.1619,0,-0.1185,-0.1211,-0.1234,-0.1271,-0.1291,-0.1316,-0.1348,-0.1362,-0.1382,-0.1412,-0.1435,-0.1463,-0.1488,-0.1526,-0.1553,-0.156,-0.1574,-0.1566,-0.1566,-0.157,-0.1606,-0.1604,-0.1555,-0.1555,-0.1555,-0.1555,-0.1555,-0.1555,-0.1165,-0.1182,-0.1205,-0.1234,-0.126,-0.1284,-0.1299,-0.1322,-0.1346,-0.1376,-0.1398,-0.1422,-0.1455,-0.1485,-0.1509,-0.1519,-0.1527,-0.1516,-0.153,-0.1562,-0.1568,-0.1574,-0.1572,-0.1517,-0.1517,-0.1493,-0.1493,-0.1493]},{"header":{"parameterUnit":"m.s-1","parameterCategory":1,"la1":30.2991,"la2":30.254,"lo1":-89.0895,"lo2":-89.0444,"dx":0.0017,"dy":0.0017,"nx":28,"ny":28,"refTime":"2022-12-14T15:00:00:Z","depth":0,"parameterNumber":3,"parameterNumberName":"V-component_of_WINDS"},"data":[0,0,0,0,0,0,0,0,0,0,0,0,0,0,0,0,0,0,0,0,0,0,0,0,0,0,0,0,0,0,0,0,0,0,0,0,0,0,0,0,0,0,0,0,0,0,0,0,0,0,0,0,0,0,0,0,0,0,9.2297,9.2298,0,9.246,9.2462,9.2464,9.247,9.2468,9.2466,9.2464,9.2632,9.2638,9.2644,0,0,0,0,0,0,0,0,0,0,0,0,0,9.1993,9.1999,9.2296,9.2298,9.23,9.246,9.2462,9.2464,9.247,9.2467,9.2465,9.2463,9.263,9.2637,9.2645,0,0,0,0,0,0,0,0,0,0,0,0,0,9.2138,9.2,9.2296,9.2322,9.2326,9.2459,9.2462,9.2465,9.247,9.2467,9.2464,9.2462,9.2627,9.2637,9.2646,9.2764,0,0,9.2675,9.2679,0,0,0,0,0,0,0,0,9.2129,9.2149,9.2317,9.2321,9.2326,9.2441,9.2417,9.2565,9.2471,9.2416,9.2464,9.246,9.2571,9.2585,9.2622,9.2772,9.2779,9.2676,9.2681,9.2686,9.2688,0,0,0,0,0,0,0,9.2119,9.2142,9.2361,9.2319,9.2325,9.2328,9.2345,9.2445,9.2508,9.242,9.2421,9.244,9.2573,9.2613,9.2626,9.2781,9.2675,9.2684,9.269,9.2693,9.3042,9.3046,0,0,0,0,0,0,9.2104,9.2133,9.2356,9.2366,9.2218,9.2335,9.2355,9.2407,9.2507,9.2519,9.2443,9.244,9.2598,9.2615,9.2632,9.2781,9.2685,9.2694,9.27,9.3039,9.3043,9.3047,0,0,0,0,0,0,9.2097,9.2124,9.2349,9.225,9.2279,9.2344,9.2403,9.2412,9.2452,9.2524,9.2535,9.2472,9.2597,9.2619,9.2732,9.2787,9.2699,9.2707,9.3035,9.304,9.3045,9.3077,0,0,0,0,0,0,9.2088,9.2121,9.2165,9.2251,9.2284,9.2446,9.2406,9.2417,9.2468,9.2466,9.2554,9.2566,9.2596,9.2718,9.2742,9.2798,9.2715,9.303,9.3037,9.3043,9.3071,9.3083,9.3092,0,0,0,0,0,9.2078,9.2166,9.2167,9.2194,9.2341,9.2449,9.2468,9.25,9.2472,9.2519,9.2566,9.2563,9.2777,9.273,9.2756,9.2816,9.3027,9.3035,9.3043,9.3066,9.308,9.3092,0,0,0,0,0,0,9.2084,9.2178,9.218,9.2299,9.2366,9.2449,9.2508,9.2513,9.2589,9.2584,9.2622,9.2642,9.2756,9.2797,9.2743,9.2939,9.2899,9.2912,9.2908,9.2921,9.2932,9.292,9.2722,0,0,0,0,0,9.2099,9.2178,9.2256,9.2354,9.2388,9.2442,9.249,9.251,9.2581,9.2609,9.2664,9.2734,9.2818,9.2871,9.2951,9.3077,9.3099,9.3132,9.3142,9.3151,9.3163,9.3238,9.3255,9.3073,9.3073,9.3073,0,0,9.2131,9.2193,9.224,9.2357,9.2411,9.2495,9.2466,9.2553,9.2617,9.2623,9.2735,9.2778,9.2858,9.298,9.3036,9.3018,9.3218,9.3161,9.3167,9.3175,9.3248,9.3265,9.328,9.3079,9.3078,9.3077,0,0,9.2234,9.2286,9.2376,9.2432,9.2515,9.2552,9.2573,9.2657,9.2687,9.28,9.2808,9.2884,9.3025,9.3084,9.3132,9.3263,9.3265,9.3287,9.3343,9.3416,9.343,9.3443,9.3493,9.3511,9.3299,9.3299,9.3299,0,9.2263,9.2388,9.2421,9.2511,9.2564,9.2575,9.2668,9.272,9.2826,9.2863,9.2841,9.3023,9.3077,9.3215,9.3248,9.3285,9.3314,9.3278,9.3425,9.3438,9.3451,9.35,9.3518,9.3301,9.3301,9.3301,9.3301,0,9.2423,9.2509,9.2572,9.2675,9.2735,9.2826,9.2875,9.2932,9.2948,9.2988,9.3106,9.3172,9.3269,9.3302,9.3317,9.3445,9.3431,9.3417,9.3378,9.347,9.3517,9.3535,9.3305,9.3304,9.3303,9.3303,0,0,9.2531,9.2655,9.2678,9.2727,9.2822,9.2891,9.2984,9.3079,9.3129,9.3202,9.3284,9.3406,9.3395,9.345,9.3472,9.3535,9.364,9.3514,9.3517,9.3538,9.379,9.3802,9.3823,9.3642,9.3646,9.3648,9.3785,0,9.2646,9.2811,9.2847,9.299,9.3074,9.3088,9.317,9.3238,9.3279,9.3357,9.3402,9.349,9.3466,9.35,9.3563,9.3614,9.3692,9.3604,9.3721,9.3725,9.3703,9.3847,9.3859,9.3984,9.3802,9.3805,9.3808,0,9.2801,9.2881,9.3034,9.3123,9.3159,9.3232,9.3325,9.3398,9.3478,9.3503,9.3568,9.3585,9.3685,9.3641,9.3782,9.3722,9.3772,9.3805,9.381,9.3824,9.3773,9.3867,9.4024,9.4044,9.3836,9.3834,9.3832,0,9.287,9.3015,9.3127,9.3168,9.3273,9.3325,9.3372,9.3448,9.3505,9.3587,9.3625,9.3717,9.3768,9.384,9.3882,9.3845,9.4022,9.398,9.4049,9.4048,9.4086,9.4084,9.4256,9.4114,9.4114,9.4113,9.4113,0,9.2996,9.309,9.316,9.3228,9.3336,9.3376,9.3482,9.3528,9.3597,9.3677,9.3694,9.3769,9.382,9.3903,9.3937,9.4052,9.4073,9.4099,9.4108,9.4099,9.4097,9.4134,9.4128,9.4118,9.4117,9.4116,9.4115,0,9.3091,9.3141,9.3264,9.3356,9.3381,9.3456,9.3535,9.3604,9.3647,9.3748,9.3775,9.3841,9.3941,9.399,9.4113,9.4136,9.4267,9.4268,9.424,9.4244,9.4312,9.4306,9.4517,9.4548,9.4382,9.4384,9.4385,0,9.317,9.3243,9.3343,9.3398,9.3447,9.3534,9.3594,9.3638,9.3699,9.3799,9.3857,9.3957,9.404,9.4198,9.4259,9.4354,9.436,9.4427,9.4374,9.4366,9.4366,9.4362,9.4372,9.4437,9.4439,9.444,9.4441,0,9.3305,9.3327,9.3411,9.3506,9.3577,9.3653,9.3729,9.3773,9.383,9.3899,9.4001,9.4066,9.4193,9.4294,9.4395,9.4445,9.4455,9.4457,9.4479,9.4473,9.4455,9.447,9.4269,9.4453,9.4451,9.4451,9.445,9.445,9.3397,9.3464,9.3547,9.3642,9.3704,9.3775,9.3846,9.3899,9.3985,9.4093,9.4114,9.4224,9.4307,9.4443,9.4497,9.4585,9.4571,9.4601,9.4609,9.4617,9.4623,9.4439,9.4603,9.4603,9.4603,9.4602,9.4602,0,9.3536,9.3591,9.3678,9.3784,9.386,9.3863,9.3948,9.4012,9.4108,9.4184,9.4267,9.4387,9.4487,9.4557,9.4658,9.4716,9.4723,9.4741,9.4739,9.4751,9.4627,9.46,9.4734,9.4734,9.4734,9.4734,9.4734,9.4734,9.3618,9.3734,9.3767,9.3916,9.397,9.4079,9.4128,9.4195,9.4257,9.4391,9.4474,9.4519,9.4595,9.4703,9.4796,9.4814,9.4852,9.4871,9.489,9.4773,9.4759,9.4746,9.4721,9.4878,9.4878,9.5007,9.5008,9.5009]}]]